Location: Oshawa
(43.9000°N, 78.8670°W)
Time: 18:16:44
(UTC-04:00)

Cosmos 1821 Rocket - Visible Passes

Search period start: 28 August 2015 00:00
Search period end: 07 September 2015 00:00
Orbit: 945 x 1005 km, 82.9° (Epoch: 27 August)

Date Brightness Start Highest point End Pass type
(mag) Time Alt. Az. Time Alt. Az. Time Alt. Az.
28 Aug 5.3 00:51:16 10° N 00:55:50 33° NE 00:55:50 33° NE visible
28 Aug 5.2 02:36:35 10° NNW 02:40:29 32° NW 02:40:29 32° NW visible
29 Aug 4.9 01:16:17 10° N 01:20:50 45° NNE 01:20:50 45° NNE visible
29 Aug 5.7 03:02:41 10° NW 03:05:28 20° WNW 03:05:28 20° WNW visible
29 Aug 5.9 23:57:39 10° NNE 00:01:11 18° ENE 00:01:11 18° ENE visible
30 Aug 4.9 01:41:36 10° N 01:45:50 45° NNW 01:45:50 45° NNW visible
30 Aug 6.2 03:29:56 10° NW 03:30:28 11° WNW 03:30:28 11° WNW visible
31 Aug 5.5 00:22:06 10° N 00:26:12 28° NE 00:26:12 28° NE visible
31 Aug 5.3 02:07:11 10° NNW 02:10:51 33° NW 02:10:51 33° NW visible
01 Sep 5.1 00:47:03 10° N 00:51:14 39° NNE 00:51:14 39° NNE visible
01 Sep 5.8 02:33:08 10° NNW 02:35:53 21° NW 02:35:53 21° NW visible
01 Sep 6.1 23:28:45 10° NNE 23:31:37 15° NE 23:31:37 15° NE visible
02 Sep 5.1 01:12:17 10° N 01:16:16 42° N 01:16:16 42° N visible
02 Sep 6.2 02:59:52 10° NW 03:00:55 12° WNW 03:00:55 12° WNW visible
02 Sep 5.6 23:52:58 10° NNE 23:56:40 24° NE 23:56:40 24° NE visible
03 Sep 5.4 01:37:48 10° NNW 01:41:19 33° NW 01:41:19 33° NW visible
04 Sep 5.3 00:17:50 10° N 00:21:44 34° NNE 00:21:44 34° NNE visible
04 Sep 5.8 02:03:37 10° NNW 02:06:23 22° NW 02:06:23 22° NW visible
04 Sep 6.1 23:00:01 10° NE 23:02:09 13° NE 23:02:09 13° NE visible
05 Sep 5.2 00:43:00 10° N 00:46:48 39° N 00:46:48 39° N visible
05 Sep 6.2 02:30:04 10° NW 02:31:27 14° NW 02:31:27 14° NW visible
05 Sep 5.8 23:23:54 10° NNE 23:27:14 21° NE 23:27:14 21° NE visible
06 Sep 5.4 01:08:26 10° NNW 01:11:53 33° NNW 01:11:53 33° NNW visible
